EW0395 Weather Reports


Display with metric or nautical units.
time (UTC)temp
F
wind
direction
speed
MPH
gust
MPH
rain 1hr
in
rain 24hr
in
rain mn
in
humidity
%
barometer
mb
20260903234536 68 0 0.0 0.0 0.00 0.07 0.07 96 1012.7
20260903233042 68 0 0.0 0.0 0.00 0.07 0.07 95 1012.8
20260903231535 69 0 0.0 0.0 0.00 0.07 0.07 94 1012.8
20260903230040 69 0 0.0 0.0 0.00 0.07 0.07 92 1012.9
20260903224540 70 0 0.0 0.0 0.00 0.07 0.07 92 1013.0
20260903223036 71 0 0.0 0.0 0.00 0.07 0.07 91 1012.9
20260903221546 71 0 0.0 0.0 0.00 0.07 0.07 90 1013.0
20260903220036 72 0 0.0 0.0 0.00 0.07 0.07 90 1013.3
20260903214537 72 0 0.0 0.0 0.00 0.07 0.07 88 1013.4
20260903213036 72 0 0.0 0.0 0.00 0.07 0.07 89 1013.3
20260903211547 72 0 0.0 0.0 0.00 0.07 0.07 88 1013.2
20260903210038 72 0 0.0 0.0 0.00 0.07 0.07 87 1013.1
20260903204556 72 0 0.0 0.0 0.00 0.07 0.07 88 1013.0
20260903203049 72 0 0.0 0.0 0.00 0.07 0.07 88 1013.2
20260903201541 72 0 0.0 0.0 0.00 0.07 0.07 88 1013.3
20260903200047 73 0 0.0 0.0 0.00 0.07 0.07 88 1013.4
20260903194543 73 0 0.0 0.0 0.00 0.07 0.07 88 1013.5
20260903193042 72 0 0.0 0.0 0.00 0.07 0.07 90 1013.6
20260903191541 72 0 0.0 0.0 0.00 0.07 0.07 89 1013.7
20260903190041 71 0 0.0 0.0 0.00 0.07 0.07 88 1013.7
20260903184543 71 0 0.0 0.0 0.00 0.07 0.07 88 1013.7
20260903183043 70 0 0.0 0.0 0.00 0.07 0.07 89 1014.0
20260903181540 70 0 0.0 0.0 0.00 0.07 0.07 91 1014.3
20260903180106 69 0 0.0 0.0 0.00 0.07 0.07 91 1014.3
20260903174542 69 0 0.0 0.0 0.00 0.07 0.07 93 1014.5
20260903173042 67 0 0.0 0.0 0.00 0.07 0.07 95 1014.5
20260903171548 66 0 0.0 0.0 0.00 0.07 0.07 96 1014.7
20260903170039 65 0 0.0 0.0 0.00 0.07 0.07 95 1014.9
20260903164543 65 0 0.0 0.0 0.00 0.07 0.07 96 1014.8
20260903163042 65 0 0.0 0.0 0.00 0.07 0.07 96 1014.9
20260903161538 65 0 0.0 0.0 0.00 0.07 0.07 96 1014.9
20260903160038 64 0 0.0 0.0 0.00 0.07 0.07 98 1014.9
20260903154538 63 0 0.0 0.0 0.00 0.07 0.07 98 1015.0
20260903153040 63 0 0.0 0.0 0.00 0.07 0.07 98 1015.1
20260903151537 63 0 0.0 0.0 0.00 0.07 0.07 98 1015.4
20260903150035 62 0 0.0 0.0 0.00 0.07 0.07 98 1015.5
20260903144541 62 0 0.0 0.0 0.00 0.07 0.07 98 1015.7
20260903143035 62 0 0.0 0.0 0.00 0.07 0.07 98 1015.7
20260903141541 62 0 0.0 0.0 0.00 0.07 0.07 98 1015.8
20260903140042 62 0 0.0 0.0 0.00 0.07 0.07 99 1015.7
20260903134539 62 0 0.0 0.0 0.00 0.07 0.07 99 1015.7
20260903133042 61 0 0.0 0.0 0.00 0.07 0.07 99 1015.5
20260903131543 61 0 0.0 0.0 0.00 0.07 0.07 99 1015.5
20260903130104 60 0 0.0 0.0 0.00 0.07 0.07 99 1015.7
20260903124547 60 0 0.0 0.0 0.00 0.07 0.07 99 1015.8
20260903123042 60 0 0.0 0.0 0.00 0.07 0.07 99 1015.8
20260903121547 59 0 0.0 0.0 0.00 0.07 0.07 99 1016.0
20260903120041 59 0 0.0 0.0 0.00 0.07 0.07 99 1016.1
20260903114541 59 0 0.0 0.0 0.00 0.07 0.07 99 1016.1
20260903113043 58 0 0.0 0.0 0.00 0.07 0.07 99 1016.2
20260903111540 58 0 0.0 0.0 0.00 0.07 0.07 99 1016.2
20260903110108 58 0 0.0 0.0 0.00 0.07 0.07 99 1016.2
20260903104538 58 0 0.0 0.0 0.00 0.07 0.07 99 1016.2
20260903103036 58 0 0.0 0.0 0.00 0.07 0.07 99 1016.0
20260903101537 58 0 0.0 0.0 0.00 0.07 0.07 98 1016.2
20260903100036 58 0 0.0 0.0 0.00 0.07 0.07 98 1016.0
20260903094550 58 0 0.0 0.0 0.00 0.07 0.07 98 1016.2
20260903093039 58 0 0.0 0.0 0.00 0.07 0.07 98 1016.2
20260903091538 58 0 0.0 0.0 0.00 0.07 0.07 98 1016.2
20260903090037 58 0 0.0 0.0 0.00 0.07 0.07 98 1016.3
20260903084539 58 0 0.0 0.0 0.00 0.07 0.07 98 1016.6
20260903083039 58 0 0.0 0.0 0.00 0.07 0.07 98 1016.6
20260903081542 58 0 0.0 0.0 0.00 0.07 0.07 98 1016.7
20260903080042 58 0 0.0 0.0 0.00 0.07 0.07 97 1016.7
20260903074541 58 0 0.0 0.0 0.00 0.07 0.07 97 1016.8
20260903073039 58 0 0.0 0.0 0.01 0.07 0.07 97 1017.2
20260903071539 58 0 0.0 0.0 0.02 0.07 0.07 97 1017.2
20260903070038 58 0 0.0 0.0 0.07 0.07 0.07 96 1017.1
20260903064538 58 0 0.0 0.0 0.07 0.07 0.07 96 1016.8
20260903063040 58 0 0.0 0.0 0.06 0.06 0.06 95 1016.8
20260903061550 59 0 0.0 0.0 0.05 0.05 0.05 92 1017.2
20260903060040 60 0 0.0 0.0 0.00 0.00 0.00 89 1017.6
20260903054546 60 0 0.0 0.0 0.00 0.00 0.00 88 1017.9
20260903053059 60 0 0.0 0.0 0.00 0.00 0.00 88 1018.1
20260903051539 61 0 0.0 0.0 0.00 0.00 0.00 88 1018.6
20260903050038 61 0 0.0 0.0 0.00 0.00 0.00 88 1018.5
20260903044550 61 0 0.0 0.0 0.00 0.00 0.00 88 1018.4
20260903043039 61 0 0.0 0.0 0.00 0.00 0.00 88 1018.3
20260903041538 61 0 0.0 0.0 0.00 0.00 0.00 88 1018.5
20260903040041 61 0 0.0 0.0 0.00 0.00 0.00 88 1018.6
20260903034538 61 0 0.0 0.0 0.00 0.00 0.00 88 1018.6
20260903033038 61 0 0.0 0.0 0.00 0.00 0.00 88 1019.1
20260903031536 61 0 0.0 0.0 0.00 0.00 0.00 87 1019.2
20260903030043 61 0 0.0 0.0 0.00 0.00 0.00 87 1019.2
20260903024542 61 0 0.0 0.0 0.00 0.00 0.00 87 1019.7
20260903023039 61 0 0.0 0.0 0.00 0.00 0.00 86 1019.5
20260903021540 61 0 0.0 0.0 0.00 0.00 0.00 85 1019.7
20260903020040 61 0 0.0 0.0 0.00 0.00 0.00 85 1019.8
20260903014543 61 0 0.0 0.0 0.00 0.00 0.00 84 1020.3
20260903013036 61 0 0.0 0.0 0.00 0.00 0.00 84 1020.2
20260903011542 62 0 0.0 0.0 0.00 0.00 0.00 85 1020.1
20260903010047 62 0 0.0 0.0 0.00 0.00 0.00 87 1020.1
20260903004535 62 0 0.0 0.0 0.00 0.00 0.00 85 1019.9
20260903003036 62 0 0.0 0.0 0.00 0.00 0.00 86 1019.5
20260903001538 62 0 0.0 0.0 0.00 0.00 0.00 87 1019.2
20260903000038 62 0 0.0 0.0 0.00 0.00 0.00 88 1019.6